When you browse on this site, cookies collect data to enhance your experience and personalize the content and advertising you see.
Visit our Privacy Policy to learn more. By continuing to use the site, you agree to this use of cookies and data.
  • en France
  • Liste des pays
  • À 7 jours
  • Température de l'eau
  • Carte satellitaire
  • Carte météo
  • Widgets météo
  • user-avatar
    Se connecter

    Météo par heure à Bijeljina

    Ce jour, 20 Juillet, Samedi

    Heure Température Précipitation Vent Pression Humidité
    00:00 +20°C° 0 mm 1 m/s 755 mmHg 84%
    01:00 +20°C° 0 mm 1 m/s 755 mmHg 86%
    02:00 +19°C° 0 mm 1 m/s 755 mmHg 87%
    03:00 +19°C° 0 mm 1 m/s 755 mmHg 87%
    04:00 +19°C° 0 mm 1 m/s 755 mmHg 88%
    05:00 +20°C° 0 mm 1 m/s 755 mmHg 83%
    06:00 +22°C° 0 mm 1 m/s 755 mmHg 78%
    07:00 +24°C° 0 mm 1 m/s 756 mmHg 73%
    08:00 +25°C° 0 mm 1 m/s 756 mmHg 68%
    09:00 +27°C° 0 mm 1 m/s 756 mmHg 62%
    10:00 +29°C° 0 mm 1 m/s 756 mmHg 57%
    11:00 +30°C° 0 mm 1 m/s 756 mmHg 52%
    12:00 +31°C° 0 mm 1 m/s 755 mmHg 47%
    13:00 +32°C° 0 mm 1 m/s 755 mmHg 42%
    14:00 +32°C° 0 mm 1 m/s 755 mmHg 42%
    15:00 +32°C° 0 mm 1 m/s 755 mmHg 42%
    16:00 +32°C° 0 mm 1 m/s 755 mmHg 42%
    17:00 +30°C° 0 mm 1 m/s 755 mmHg 47%
    18:00 +28°C° 0 mm 1 m/s 755 mmHg 53%
    19:00 +26°C° 0 mm 1 m/s 755 mmHg 59%
    20:00 +25°C° 0 mm 1 m/s 755 mmHg 61%
    21:00 +24°C° 0 mm 1 m/s 756 mmHg 62%
    22:00 +23°C° 0 mm 1 m/s 756 mmHg 64%
    23:00 +22°C° 0 mm 1 m/s 756 mmHg 66%

    Demain, 21 Juillet, Dimanche

    Heure Température Précipitation Vent Pression Humidité
    00:00 +22°C° 0 mm 1 m/s 756 mmHg 69%
    01:00 +21°C° 0 mm 1 m/s 756 mmHg 71%
    02:00 +21°C° 0 mm 1 m/s 756 mmHg 72%
    03:00 +21°C° 0 mm 1 m/s 756 mmHg 74%
    04:00 +20°C° 0 mm 1 m/s 756 mmHg 75%
    05:00 +22°C° 0 mm 1 m/s 756 mmHg 72%
    06:00 +24°C° 0 mm 1 m/s 756 mmHg 68%
    07:00 +23°C° 0 mm 0 m/s 756 mmHg 65%
    08:00 +25°C° 0 mm 0 m/s 756 mmHg 60%
    09:00 +27°C° 0 mm 0 m/s 757 mmHg 56%
    10:00 +29°C° 0 mm 0 m/s 757 mmHg 51%
    11:00 +30°C° 0 mm 0 m/s 756 mmHg 48%
    12:00 +33°C° 0 mm 1 m/s 756 mmHg 45%
    13:00 +34°C° 0 mm 1 m/s 756 mmHg 43%
    14:00 +34°C° 0 mm 1 m/s 756 mmHg 43%
    15:00 +34°C° 0 mm 1 m/s 756 mmHg 44%
    16:00 +34°C° 0 mm 1 m/s 755 mmHg 44%
    17:00 +32°C° 0 mm 1 m/s 756 mmHg 50%
    18:00 +30°C° 0 mm 1 m/s 756 mmHg 56%
    19:00 +28°C° 0 mm 1 m/s 756 mmHg 62%
    20:00 +27°C° 0 mm 1 m/s 756 mmHg 64%
    21:00 +25°C° 0 mm 1 m/s 757 mmHg 67%
    22:00 +22°C° 0 mm 0 m/s 757 mmHg 69%
    23:00 +22°C° 0 mm 0 m/s 757 mmHg 70%

    Après-demain, 22 Juillet, Lundi

    Heure Température Précipitation Vent Pression Humidité
    00:00 +23°C° 0 mm 1 m/s 757 mmHg 72%
    01:00 +23°C° 0 mm 1 m/s 757 mmHg 73%
    02:00 +22°C° 0.1 mm 1 m/s 757 mmHg 78%
    03:00 +21°C° 0.1 mm 2 m/s 757 mmHg 83%
    04:00 +20°C° 0.1 mm 2 m/s 758 mmHg 88%
    05:00 +21°C° 0.1 mm 2 m/s 758 mmHg 87%
    06:00 +23°C° 0.1 mm 2 m/s 758 mmHg 86%
    07:00 +24°C° 0.1 mm 3 m/s 758 mmHg 85%
    08:00 +25°C° 0 mm 3 m/s 758 mmHg 77%
    09:00 +27°C° 0 mm 3 m/s 759 mmHg 69%
    10:00 +29°C° 0 mm 3 m/s 759 mmHg 60%
    11:00 +30°C° 0.1 mm 3 m/s 759 mmHg 58%
    12:00 +30°C° 0.1 mm 3 m/s 758 mmHg 55%
    13:00 +31°C° 0.1 mm 3 m/s 758 mmHg 53%
    14:00 +31°C° 0 mm 3 m/s 758 mmHg 52%
    15:00 +31°C° 0 mm 3 m/s 758 mmHg 52%
    16:00 +31°C° 0 mm 3 m/s 758 mmHg 51%
    17:00 +29°C° 0 mm 3 m/s 758 mmHg 57%
    18:00 +27°C° 0 mm 2 m/s 758 mmHg 64%
    19:00 +25°C° 0 mm 2 m/s 758 mmHg 70%
    20:00 +24°C° 0 mm 2 m/s 758 mmHg 71%
    21:00 +23°C° 0 mm 1 m/s 758 mmHg 72%
    22:00 +22°C° 0 mm 1 m/s 758 mmHg 74%
    23:00 +21°C° 0 mm 1 m/s 758 mmHg 75%

    23 Juillet, Mardi

    Heure Température Précipitation Vent Pression Humidité
    00:00 +21°C° 0 mm 1 m/s 758 mmHg 76%
    01:00 +21°C° 0 mm 1 m/s 758 mmHg 77%
    02:00 +20°C° 0 mm 1 m/s 758 mmHg 78%
    03:00 +19°C° 0 mm 2 m/s 758 mmHg 79%
    04:00 +19°C° 0 mm 2 m/s 757 mmHg 80%
    05:00 +20°C° 0 mm 2 m/s 757 mmHg 76%
    06:00 +23°C° 0 mm 2 m/s 757 mmHg 72%
    07:00 +24°C° 0 mm 2 m/s 758 mmHg 68%
    08:00 +25°C° 0 mm 3 m/s 758 mmHg 63%
    09:00 +27°C° 0 mm 3 m/s 758 mmHg 57%
    10:00 +28°C° 0 mm 4 m/s 758 mmHg 52%
    11:00 +29°C° 0 mm 4 m/s 757 mmHg 49%
    12:00 +29°C° 0 mm 5 m/s 757 mmHg 47%
    13:00 +29°C° 0 mm 5 m/s 757 mmHg 44%
    14:00 +29°C° 0 mm 5 m/s 756 mmHg 46%
    15:00 +29°C° 0 mm 4 m/s 756 mmHg 48%
    16:00 +29°C° 0 mm 4 m/s 756 mmHg 50%
    17:00 +27°C° 0 mm 3 m/s 756 mmHg 56%
    18:00 +25°C° 0 mm 2 m/s 756 mmHg 63%
    19:00 +24°C° 0 mm 1 m/s 756 mmHg 69%
    20:00 +23°C° 0 mm 1 m/s 756 mmHg 72%
    21:00 +21°C° 0 mm 1 m/s 757 mmHg 74%
    22:00 +20°C° 0 mm 1 m/s 757 mmHg 77%
    23:00 +20°C° 0 mm 1 m/s 757 mmHg 78%

    24 Juillet, Mercredi

    Heure Température Précipitation Vent Pression Humidité
    00:00 +20°C° 0 mm 1 m/s 757 mmHg 79%
    01:00 +19°C° 0 mm 1 m/s 757 mmHg 80%
    02:00 +19°C° 0 mm 1 m/s 756 mmHg 81%
    03:00 +19°C° 0 mm 1 m/s 756 mmHg 82%
    04:00 +18°C° 0 mm 1 m/s 756 mmHg 83%
    05:00 +20°C° 0 mm 1 m/s 756 mmHg 77%
    06:00 +22°C° 0 mm 1 m/s 757 mmHg 72%
    07:00 +23°C° 0 mm 1 m/s 757 mmHg 67%
    08:00 +25°C° 0 mm 1 m/s 757 mmHg 62%
    09:00 +26°C° 0 mm 1 m/s 757 mmHg 58%
    10:00 +28°C° 0 mm 1 m/s 757 mmHg 53%
    11:00 +29°C° 0 mm 1 m/s 756 mmHg 51%
    12:00 +29°C° 0 mm 2 m/s 756 mmHg 48%
    13:00 +30°C° 0 mm 2 m/s 756 mmHg 45%
    14:00 +30°C° 0 mm 2 m/s 756 mmHg 46%
    15:00 +30°C° 0 mm 2 m/s 756 mmHg 46%
    16:00 +30°C° 0 mm 2 m/s 755 mmHg 47%
    17:00 +28°C° 0 mm 1 m/s 755 mmHg 53%
    18:00 +27°C° 0 mm 1 m/s 756 mmHg 59%
    19:00 +25°C° 0 mm 1 m/s 756 mmHg 65%
    20:00 +24°C° 0 mm 1 m/s 756 mmHg 68%
    21:00 +23°C° 0 mm 1 m/s 756 mmHg 71%
    22:00 +22°C° 0 mm 1 m/s 757 mmHg 74%
    23:00 +21°C° 0 mm 1 m/s 757 mmHg 76%

    25 Juillet, Jeudi

    Heure Température Précipitation Vent Pression Humidité
    00:00 +21°C° 0 mm 1 m/s 757 mmHg 78%
    01:00 +20°C° 0 mm 1 m/s 757 mmHg 80%
    02:00 +20°C° 0 mm 1 m/s 757 mmHg 81%
    03:00 +20°C° 0 mm 1 m/s 757 mmHg 83%
    04:00 +19°C° 0 mm 1 m/s 757 mmHg 84%
    05:00 +21°C° 0 mm 1 m/s 757 mmHg 78%
    06:00 +21°C° 0 mm 0 m/s 757 mmHg 73%
    07:00 +23°C° 0 mm 0 m/s 757 mmHg 67%
    08:00 +26°C° 0 mm 1 m/s 757 mmHg 61%
    09:00 +28°C° 0 mm 1 m/s 757 mmHg 56%
    10:00 +30°C° 0 mm 2 m/s 757 mmHg 51%
    11:00 +31°C° 0 mm 2 m/s 757 mmHg 49%
    12:00 +31°C° 0 mm 2 m/s 756 mmHg 47%
    13:00 +32°C° 0 mm 2 m/s 756 mmHg 44%
    14:00 +32°C° 0 mm 2 m/s 756 mmHg 44%
    15:00 +32°C° 0 mm 2 m/s 755 mmHg 44%
    16:00 +34°C° 0 mm 2 m/s 755 mmHg 44%
    17:00 +31°C° 0 mm 2 m/s 755 mmHg 51%
    18:00 +29°C° 0 mm 1 m/s 755 mmHg 57%
    19:00 +27°C° 0 mm 1 m/s 755 mmHg 63%
    20:00 +26°C° 0 mm 1 m/s 755 mmHg 65%
    21:00 +25°C° 0 mm 1 m/s 756 mmHg 67%
    22:00 +24°C° 0 mm 1 m/s 756 mmHg 69%
    23:00 +23°C° 0 mm 1 m/s 756 mmHg 72%
    Voir plus